Weather History for Newton, KS

Change the Weather History Date:

Sunday, October 21, 2012

  Actual Average Record
Temperature  
Mean Temperature 70 °F -  
Max Temperature 84 °F 63 °F 84 °F (2012)
Min Temperature 55 °F 43 °F 35 °F (1997)
Cooling Degree Days 4    
Growing Degree Days 20 (Base 50)    
Moisture  
Dew Point 57 °F    
Average Humidity 68    
Maximum Humidity 88    
Minimum Humidity 45    
Precipitation  
Precipitation 0.00 in - - ()
Sea Level Pressure  
Sea Level Pressure 29.72 in    
Wind  
Wind Speed 12 mph (SSE)    
Max Wind Speed 25 mph    
Max Gust Speed 32 mph    
Visibility 9 miles    
Events      
Averages and records for this station are not official NWS values.
T = Trace of Precipitation, MM = Missing Value Source: NWS Daily Summary

Daily Weather History Graph

Daily Weather History Graph

Search for Another Location

Airport:

Trip Planner

Search our weather history database for the weather conditions in past years. The results will help you decide how hot, cold, wet, or windy it might be!

Date:

Astronomy

Oct. 21, 2012 Rise Set
Actual Time 7:44 AM CDT 6:42 PM CDT
Civil Twilight 7:17 AM CDT 7:09 PM CDT
Nautical Twilight 6:46 AM CDT 7:39 PM CDT
Astronomical Twilight 6:16 AM CDT 8:10 PM CDT
Moon 2:04 PM CDT (10/21) No Moon Set
Length of Visible Light 11h 51m
Length of Day
10h 58m
Waxing Crescent, 45% of the Moon is Illuminated
Oct 21
Waxing Crescent
Oct 21
First Quarter
Oct 29
Full
Nov 6
Last Quarter
Nov 13
New

Hourly Weather History & Observations

Time (CDT) Temp. Heat Index Dew Point Humidity Pressure Visibility Wind Dir Wind Speed Gust Speed Precip Events Conditions
12:15 AM 60.8 °F - 46.4 °F 59% 29.75 in 10.0 mi South 8.1 mph - N/A   Clear
12:35 AM 59.0 °F - 44.6 °F 59% 29.75 in 10.0 mi SSE 9.2 mph - N/A   Clear
12:55 AM 60.8 °F - 46.4 °F 59% 29.75 in 10.0 mi SSE 9.2 mph - N/A   Clear
1:15 AM 59.0 °F - 46.4 °F 63% 29.75 in 10.0 mi SSE 6.9 mph - N/A   Clear
1:35 AM 55.4 °F - 44.6 °F 67% 29.75 in 10.0 mi SE 8.1 mph - N/A   Clear
1:55 AM 55.4 °F - 44.6 °F 67% 29.75 in 10.0 mi SE 8.1 mph - N/A   Clear
2:15 AM 55.4 °F - 44.6 °F 67% 29.75 in 10.0 mi SE 8.1 mph - N/A   Clear
2:35 AM 55.4 °F - 46.4 °F 72% 29.75 in 10.0 mi SE 8.1 mph - N/A   Clear
2:55 AM 55.4 °F - 46.4 °F 72% 29.75 in 10.0 mi SE 8.1 mph - N/A   Clear
3:15 AM 55.4 °F - 46.4 °F 72% 29.74 in 10.0 mi SE 9.2 mph - N/A   Clear
3:35 AM 55.4 °F - 48.2 °F 77% 29.74 in 10.0 mi SE 9.2 mph - N/A   Clear
3:55 AM 57.2 °F - 48.2 °F 72% 29.74 in 10.0 mi SE 9.2 mph - N/A   Clear
4:15 AM 57.2 °F - 50.0 °F 77% 29.74 in 10.0 mi SE 9.2 mph - N/A   Clear
4:35 AM 57.2 °F - 51.8 °F 82% 29.73 in 10.0 mi SE 10.4 mph - N/A   Clear
4:55 AM 57.2 °F - 51.8 °F 82% 29.73 in 10.0 mi SE 10.4 mph - N/A   Clear
5:15 AM 57.2 °F - 51.8 °F 82% 29.73 in 10.0 mi SSE 10.4 mph - N/A   Clear
5:35 AM 57.2 °F - 51.8 °F 82% 29.73 in 10.0 mi SSE 10.4 mph - N/A   Clear
5:55 AM 57.2 °F - 51.8 °F 82% 29.73 in 8.0 mi SE 9.2 mph - N/A   Clear
6:15 AM 57.2 °F - 51.8 °F 82% 29.73 in 7.0 mi SE 9.2 mph - N/A   Clear
6:35 AM 57.2 °F - 53.6 °F 88% 29.73 in 5.0 mi SSE 10.4 mph - N/A   Clear
6:55 AM 57.2 °F - 53.6 °F 88% 29.73 in 5.0 mi SE 9.2 mph - N/A   Clear
7:15 AM 57.2 °F - 53.6 °F 88% 29.73 in 5.0 mi SE 10.4 mph - N/A   Clear
7:35 AM 57.2 °F - 53.6 °F 88% 29.73 in 5.0 mi SE 9.2 mph - N/A   Clear
7:55 AM 57.2 °F - 53.6 °F 88% 29.73 in 3.0 mi SE 11.5 mph - N/A   Clear
8:15 AM 57.2 °F - 53.6 °F 88% 29.74 in 3.0 mi SE 10.4 mph - N/A   Partly Cloudy
8:35 AM 59.0 °F - 53.6 °F 82% 29.74 in 3.0 mi SE 10.4 mph - N/A   Mostly Cloudy
8:55 AM 60.8 °F - 55.4 °F 82% 29.74 in 3.0 mi SE 12.7 mph - N/A   Overcast
9:15 AM 60.8 °F - 55.4 °F 82% 29.75 in 2.0 mi SSE 12.7 mph - N/A   Overcast
9:35 AM 60.8 °F - 55.4 °F 82% 29.75 in 0.8 mi SSE 11.5 mph - N/A   Overcast
9:55 AM 62.6 °F - 57.2 °F 82% 29.75 in 1.0 mi SSE 12.7 mph - N/A   Overcast
10:15 AM 62.6 °F - 59.0 °F 88% 29.75 in 1.8 mi South 13.8 mph - N/A   Overcast
10:35 AM 62.6 °F - 59.0 °F 88% 29.76 in 3.0 mi SSE 11.5 mph - N/A   Overcast
10:55 AM 64.4 °F - 60.8 °F 88% 29.75 in 5.0 mi South 15.0 mph 18.4 mph N/A   Overcast
11:15 AM 66.2 °F - 60.8 °F 83% 29.75 in 7.0 mi South 13.8 mph 20.7 mph N/A   Overcast
11:35 AM 68.0 °F - 60.8 °F 78% 29.75 in 10.0 mi South 17.3 mph 24.2 mph N/A   Overcast
12:15 PM 73.4 °F - 60.8 °F 65% 29.74 in 10.0 mi South 16.1 mph 20.7 mph N/A   Mostly Cloudy
12:35 PM 73.4 °F - 62.6 °F 69% 29.73 in 10.0 mi South 17.3 mph - N/A   Scattered Clouds
12:55 PM 75.2 °F - 62.6 °F 65% 29.72 in 10.0 mi SSE 17.3 mph 23.0 mph N/A   Scattered Clouds
1:15 PM 78.8 °F - 62.6 °F 57% 29.72 in 10.0 mi South 18.4 mph - N/A   Partly Cloudy
1:35 PM 78.8 °F - 62.6 °F 57% 29.71 in 10.0 mi South 19.6 mph 24.2 mph N/A   Clear
1:55 PM 78.8 °F - 62.6 °F 57% 29.71 in 10.0 mi South 18.4 mph 27.6 mph N/A   Clear
2:15 PM 80.6 °F 81.8 °F 62.6 °F 54% 29.69 in 10.0 mi South 25.3 mph 28.8 mph N/A   Clear
2:35 PM 82.4 °F 83.4 °F 62.6 °F 51% 29.69 in 10.0 mi South 20.7 mph 28.8 mph N/A   Clear
2:55 PM 82.4 °F 83.4 °F 62.6 °F 51% 29.68 in 10.0 mi South 19.6 mph 32.2 mph N/A   Clear
3:15 PM 84.2 °F 85.0 °F 62.6 °F 48% 29.68 in 10.0 mi South 21.9 mph 27.6 mph N/A   Clear
3:35 PM 84.2 °F 85.0 °F 62.6 °F 48% 29.67 in 10.0 mi SSE 19.6 mph 26.5 mph N/A   Clear
3:55 PM 84.2 °F 84.4 °F 60.8 °F 45% 29.67 in 10.0 mi South 18.4 mph - N/A   Clear
4:15 PM 84.2 °F 84.4 °F 60.8 °F 45% 29.67 in 10.0 mi South 19.6 mph 24.2 mph N/A   Clear
4:35 PM 84.2 °F 84.4 °F 60.8 °F 45% 29.66 in 10.0 mi South 21.9 mph 25.3 mph N/A   Clear
4:55 PM 84.2 °F 84.4 °F 60.8 °F 45% 29.66 in 10.0 mi South 20.7 mph 25.3 mph N/A   Clear
5:15 PM 84.2 °F 84.4 °F 60.8 °F 45% 29.67 in 10.0 mi South 16.1 mph 27.6 mph N/A   Clear
5:35 PM 84.2 °F 84.4 °F 60.8 °F 45% 29.67 in 10.0 mi South 20.7 mph 24.2 mph N/A   Clear
5:55 PM 82.4 °F 82.9 °F 60.8 °F 48% 29.67 in 10.0 mi South 11.5 mph - N/A   Clear
6:15 PM 82.4 °F 82.9 °F 60.8 °F 48% 29.68 in 10.0 mi SSE 13.8 mph - N/A   Clear
6:35 PM 80.6 °F 81.5 °F 60.8 °F 51% 29.68 in 10.0 mi SSE 15.0 mph 19.6 mph N/A   Clear
6:55 PM 78.8 °F - 60.8 °F 54% 29.69 in 10.0 mi SSE 12.7 mph - N/A   Clear
7:15 PM 78.8 °F - 60.8 °F 54% 29.69 in 10.0 mi SSE 10.4 mph - N/A   Clear
7:35 PM 77.0 °F - 60.8 °F 57% 29.70 in 10.0 mi SSE 11.5 mph - N/A   Clear
7:55 PM 77.0 °F - 60.8 °F 57% 29.70 in 10.0 mi SSE 11.5 mph - N/A   Clear
8:15 PM 75.2 °F - 62.6 °F 65% 29.70 in 10.0 mi SSE 12.7 mph - N/A   Clear
8:35 PM 75.2 °F - 62.6 °F 65% 29.71 in 10.0 mi SSE 13.8 mph - N/A   Clear
8:55 PM 75.2 °F - 62.6 °F 65% 29.71 in 10.0 mi SSE 12.7 mph - N/A   Clear
9:15 PM 75.2 °F - 62.6 °F 65% 29.71 in 10.0 mi SSE 12.7 mph - N/A   Clear
9:35 PM 73.4 °F - 62.6 °F 69% 29.72 in 10.0 mi SSE 12.7 mph - N/A   Clear
9:55 PM 73.4 °F - 62.6 °F 69% 29.72 in 10.0 mi SSE 13.8 mph - N/A   Clear
10:15 PM 73.4 °F - 62.6 °F 69% 29.73 in 10.0 mi SSE 12.7 mph - N/A   Clear
10:35 PM 73.4 °F - 62.6 °F 69% 29.73 in 10.0 mi SSE 13.8 mph - N/A   Clear
10:55 PM 73.4 °F - 62.6 °F 69% 29.73 in 10.0 mi SSE 15.0 mph - N/A   Clear
11:15 PM 73.4 °F - 62.6 °F 69% 29.72 in 10.0 mi South 16.1 mph - N/A   Clear
11:35 PM 73.4 °F - 62.6 °F 69% 29.72 in 10.0 mi South 16.1 mph 19.6 mph N/A   Clear
11:55 PM 73.4 °F - 62.6 °F 69% 29.72 in 10.0 mi South 17.3 mph 21.9 mph N/A   Clear